Regional Weather Roundup
Issued by NWS

Home | Current Version | Previous Version | Graphics & Text | Print | Product List | Glossary On
Versions: 1 2 3 4 5 6 7 8 9 10 11 12 13 14 15 16 17 18 19 20 21 22 23 24 25 26 27 28 29 30 31 32 33 34 35 36 37 38 39 40 41 42 43 44 45 46 47 48 49 50
542
ASUS43 KLMK 311910
RWRKY
KENTUCKY REGIONAL WEATHER ROUNDUP
NATIONAL WEATHER SERVICE LOUISVILLE KY
300 PM EDT WED AUG 31 2016

NOTE "FAIR" INDICATES FEW OR NO CLOUDS BELOW 12,000 FEET
WITH NO SIGNIFICANT WEATHER AND/OR OBSTRUCTIONS TO VISIBILITY.

KYZ001>023-026-027-061>063-070>075-312000-
WESTERN AND SOUTH CENTRAL KENTUCKY

CITY           SKY/WX    TMP DP  RH WIND       PRES   REMARKS
PADUCAH        PTSUNNY   89  72  56 NW8       29.98F HX  96
HENDERSON      PTSUNNY   91  70  49 N8        29.96F HX  97
OWENSBORO      MOSUNNY   88  72  58 NW9       29.97F HX  94
HOPKINSVILLE   MOSUNNY   85  72  63 N7        29.96F HX  91
BOWLING GREEN  MOSUNNY   91  69  48 VRB3      29.95F HX  96
GLASGOW        MOSUNNY   90  70  52 NW6       29.96F HX  95
$$

KYZ024-025-028>034-038-045-046-053-312000-
NORTH CENTRAL KENTUCKY

CITY           SKY/WX    TMP DP  RH WIND       PRES   REMARKS
LOUISVILLE/SDF PTSUNNY   87  68  52 N7        29.95F HX  90
LOUISVILLE/LOU PTSUNNY   88  68  51 N8        29.96F HX  91
FORT KNOX      PTSUNNY   75  70  83 S6        29.97S
$$

KYZ035>037-039>044-047>052-055>060-089>105-312000-
NORTHEAST KENTUCKY

CITY           SKY/WX    TMP DP  RH WIND       PRES   REMARKS
LEXINGTON      PTSUNNY   81  73  76 W6        29.98F
COVINGTON      PTSUNNY   86  71  60 W10       29.97F HX  91
FRANKFORT      MOSUNNY   87  73  62 VRB3      29.97F HX  94
$$

KYZ054-064>069-076>088-106>120-312000-
SOUTHEAST KENTUCKY

CITY           SKY/WX    TMP DP  RH WIND       PRES   REMARKS
JACKSON        MOSUNNY   85  68  56 CALM      29.99F
LONDON         SUNNY     89  63  41 W5        29.98F HX  90
SOMERSET       MOSUNNY   88  64  45 N5        29.98F
MIDDLESBORO    CLOUDY    88  71  56 NE6       29.98F HX  93
MONTICELLO     PTCLDY   N/A N/A N/A N16       29.98F
$$





USA.gov is the U.S. government's official web portal to all federal, state and local government web resources and services.